Location: Grand Mazuras
(45.9128°N, 1.7636°E)
Time: 04:29:18
(UTC+00:00)

Cosmos 540 Rocket - Pass Details

Date: 18 April 2021
Orbit: 741 x 753 km, 74.1° (Epoch: 10 May)

Event Time Altitude Azimuth Distance (km) Brightness Sun altitude
Rises 22:15:31 0° 341° (NNW) 3,197 7.9 -28.9°
Reaches altitude 10° 22:17:56 10° 346° (NNW) 2,267 6.8 -29.1°
Enters shadow 22:22:05 49° 25° (NNE) 955 4.1 -29.4°
